RJA261G OJAI-KJFK

Flight info

Callsign RJA261G
Flight time N/A
Altitude 40000
Route MOUAB L53 GOBRI DCT BETYO DCT TADOV DCT DIVLA DCT PURLA L53 SUVAS N128 OTHON UN128 LMO DCT EVIVI L863 OKANA DCT NIVIS DCT BABIT DCT SASAL DCT BARUG DCT RENKA L610 INBED DCT BOMBI DCT ADKUV DCT BUB DCT DENUT L610 KOPUL Q60 OKSAW DCT FELCA DCT FADZU DCT BANBA DCT LIMRI/M085F400 DCT 52N020W 51N030W 50N040W 49N050W DCT JOOPY/N0488F400 N328A TUSKY DCT PLYMM PARCH4
Aircraft B788/H-SDE1E2E3FGHIJ2J3J4J5M1RWXY/LB1D1

Departure

Time N/A
Airport Queen Alia International Airport (OJAI)

Arrival

Time 2026-05-01 14:47
Airport John F. Kennedy International Airport (KJFK)
Time Latitude Longitude Altitude Speed Heading
2026-05-01 14:36 40.70335 -72.98856 13699 ft 347 kts 217°
2026-05-01 14:36 40.68273 -73.00506 13020 ft 346 kts 217°
2026-05-01 14:36 40.66218 -73.02154 12346 ft 345 kts 217°
2026-05-01 14:36 40.64163 -73.03804 11699 ft 345 kts 217°
2026-05-01 14:37 40.62112 -73.05456 11077 ft 344 kts 217°
2026-05-01 14:37 40.60072 -73.07104 10452 ft 344 kts 217°
2026-05-01 14:37 40.58036 -73.08752 10004 ft 339 kts 217°
2026-05-01 14:37 40.56081 -73.10328 9979 ft 320 kts 217°
2026-05-01 14:38 40.54237 -73.11795 9968 ft 301 kts 217°
2026-05-01 14:38 40.52458 -73.13197 9656 ft 296 kts 217°
2026-05-01 14:38 40.50800 -73.14713 9086 ft 290 kts 233°
2026-05-01 14:38 40.49946 -73.16972 8655 ft 272 kts 264°
2026-05-01 14:39 40.49834 -73.19415 8240 ft 265 kts 275°
2026-05-01 14:39 40.49953 -73.21814 7818 ft 262 kts 277°
2026-05-01 14:39 40.50084 -73.24190 7401 ft 260 kts 277°
2026-05-01 14:39 40.50220 -73.26545 7005 ft 257 kts 277°
2026-05-01 14:40 40.50362 -73.28887 6646 ft 254 kts 277°
2026-05-01 14:40 40.50509 -73.31176 6328 ft 249 kts 277°
2026-05-01 14:40 40.51012 -73.38752 5214 ft 235 kts 277°
2026-05-01 14:40 40.51438 -73.45147 4248 ft 230 kts 277°
2026-05-01 14:41 40.51612 -73.47228 3916 ft 227 kts 284°
2026-05-01 14:41 40.52210 -73.49064 3591 ft 225 kts 300°
2026-05-01 14:41 40.53018 -73.50890 3274 ft 224 kts 302°
2026-05-01 14:41 40.53815 -73.52646 3011 ft 221 kts 302°
2026-05-01 14:42 40.54573 -73.54324 3011 ft 206 kts 302°
2026-05-01 14:42 40.55270 -73.55866 3005 ft 194 kts 302°
2026-05-01 14:42 40.55941 -73.57349 3008 ft 182 kts 302°
2026-05-01 14:42 40.56576 -73.58753 3003 ft 178 kts 302°
2026-05-01 14:43 40.57210 -73.60154 2883 ft 179 kts 302°
2026-05-01 14:43 40.57822 -73.61501 2651 ft 164 kts 303°
2026-05-01 14:43 40.58398 -73.62762 2425 ft 159 kts 303°
2026-05-01 14:43 40.58973 -73.64029 2206 ft 163 kts 303°
2026-05-01 14:44 40.59557 -73.65313 1955 ft 162 kts 303°
2026-05-01 14:44 40.60637 -73.67679 1526 ft 136 kts 302°
2026-05-01 14:44 40.61112 -73.68728 1369 ft 132 kts 301°
2026-05-01 14:45 40.61577 -73.69761 1181 ft 130 kts 302°
2026-05-01 14:45 40.62508 -73.71808 826 ft 131 kts 301°
2026-05-01 14:45 40.62974 -73.72835 645 ft 130 kts 301°
2026-05-01 14:46 40.63438 -73.73836 459 ft 133 kts 303°
2026-05-01 14:46 40.64358 -73.75897 109 ft 128 kts 302°
2026-05-01 14:46 40.64799 -73.76860 31 ft 113 kts 302°
2026-05-01 14:47 40.65083 -73.77490 28 ft 54 kts 300°
2026-05-01 14:47 40.65226 -73.77804 26 ft 28 kts 291°
2026-05-01 14:47 40.65185 -73.77947 22 ft 10 kts 211°
2026-05-01 14:48 40.65085 -73.77982 26 ft 4 kts 124°
2026-05-01 14:48 40.65066 -73.77942 24 ft 8 kts 120°
2026-05-01 14:48 40.64995 -73.77781 23 ft 12 kts 120°
2026-05-01 14:49 40.64905 -73.77581 25 ft 14 kts 123°
2026-05-01 14:49 40.64801 -73.77353 25 ft 15 kts 122°
2026-05-01 14:50 40.64723 -73.77188 23 ft 17 kts 120°
2026-05-01 14:50 40.64448 -73.77097 23 ft 17 kts 196°
2026-05-01 14:51 40.64349 -73.77172 23 ft 17 kts 212°
2026-05-01 14:51 40.64143 -73.77330 23 ft 18 kts 211°
2026-05-01 14:52 40.63927 -73.77500 24 ft 18 kts 211°
2026-05-01 14:52 40.63815 -73.77588 25 ft 19 kts 211°
2026-05-01 14:52 40.63776 -73.77681 24 ft 7 kts 303°
2026-05-01 14:53 40.63831 -73.77736 25 ft 13 kts 327°
2026-05-01 14:53 40.63905 -73.77804 24 ft 13 kts 324°
2026-05-01 14:53 40.63981 -73.77863 23 ft 13 kts 331°
2026-05-01 14:53 40.64062 -73.77887 23 ft 11 kts 345°
2026-05-01 14:54 40.64128 -73.77937 26 ft 11 kts 328°
2026-05-01 14:54 40.64195 -73.77979 22 ft 10 kts 351°
2026-05-01 14:54 40.64246 -73.77954 22 ft 7 kts 31°
2026-05-01 14:54 40.64261 -73.77942 22 ft 0 kts 30°
2026-05-01 14:55 40.64759 -73.79423 24 ft 0 kts 150°
2026-05-01 15:23 40.64759 -73.79424 22 ft 0 kts 150°